{"data":{"norad_id":48406,"intl_designator":"2021-038BF","name":"STARLINK-2568","alt_names":[],"object_type":"PAYLOAD","status":"ACTIVE","operator":null,"country":"US","launch_date":"2021-05-04","launch_site_code":"AFETR","launch_vehicle":null,"mission":null,"orbit_class":"UNKNOWN","rcs_meters":null,"size_class":null,"mass_kg":null,"dimensions":null,"purposes":["comms"],"wikipedia_slug":null,"has_3d_model":false,"image_url":null,"decayed_at":null,"tle_current":{"epoch":"2026-05-24T20:22:00.501024Z","epoch_age_seconds":84251,"freshness":"FRESH","line1":"1 48406U 21038BF  26144.84861691  .00004774  00000+0  16549-3 0  9995","line2":"2 48406  53.1615 341.6275 0001235  96.4309 263.6834 15.31705702279062","mean_motion":15.31705702,"eccentricity":0.0001235,"inclination_deg":53.1615,"raan_deg":341.6275,"arg_perigee_deg":96.4309,"mean_anomaly_deg":263.6834,"bstar":0.00016549,"rev_number":27906,"period_min":94.012837983155,"perigee_km":469.87716370334,"apogee_km":471.56883212283,"semimajor_km":6848.8599979131,"source":"CELESTRAK","updated_at":"2026-05-25T13:38:16.712697Z"}}}